VR2MW-X Weather Reports


Display with metric or nautical units.
time (UTC)temp
F
wind
direction
speed
MPH
gust
MPH
rain 1hr
in
rain 24hr
in
rain mn
in
humidity
%
barometer
mb
20260505051254 72 0.0 0.0 0.00 0.00 0.00 93 1014.3
20260505050244 70 0.0 0.0 0.00 0.00 0.00 91 1014.5
20260505041152 70 0.0 0.0 0.00 0.00 0.00 95 1015.3
20260505040141 70 0.0 0.0 0.00 0.00 0.00 95 1015.2
20260505035131 68 0.0 0.0 0.00 0.00 0.00 94 1015.2
20260505034121 68 0.0 0.0 0.00 0.00 0.00 95 1015.2
20260505033110 68 0.0 0.0 0.00 0.00 0.00 94 1015.3
20260505032059 68 0.0 0.0 0.00 0.00 0.00 96 1015.6
20260505031049 68 0.0 0.0 0.00 0.00 0.00 95 1015.7
20260505030038 68 0.0 0.0 0.00 0.00 0.00 94 1015.7
20260505025028 68 0.0 0.0 0.00 0.00 0.00 95 1015.7
20260505024017 68 0.0 0.0 0.00 0.00 0.00 94 1015.7
20260505023006 68 0.0 0.0 0.00 0.00 0.00 95 1015.7
20260505021955 68 0.0 0.0 0.00 0.00 0.00 96 1015.7
20260505020945 68 0.0 0.0 0.00 0.00 0.00 96 1015.6
20260505015934 68 0.0 0.0 0.00 0.00 0.00 95 1015.5
20260505014924 68 0.0 0.0 0.00 0.00 0.00 96 1015.5
20260505013913 68 0.0 0.0 0.00 0.00 0.00 96 1015.7
20260505012903 68 0.0 0.0 0.00 0.00 0.00 95 1015.7
20260505011853 68 0.0 0.0 0.00 0.00 0.00 95 1015.7
20260505010842 68 0.0 0.0 0.00 0.00 0.00 96 1015.7
20260505005832 68 0.0 0.0 0.00 0.00 0.00 95 1015.6
20260505004822 68 0.0 0.0 0.00 0.00 0.00 94 1015.3
20260505003811 68 0.0 0.0 0.00 0.00 0.00 95 1015.2
20260505002801 68 0.0 0.0 0.00 0.00 0.00 94 1015.0
20260505001750 68 0.0 0.0 0.00 0.00 0.00 94 1015.0
20260505000740 68 0.0 0.0 0.00 0.00 0.00 92 1014.8
20260504235729 68 0.0 0.0 0.00 0.00 0.00 92 1014.7
20260504234719 68 0.0 0.0 0.00 0.00 0.00 93 1014.6
20260504233708 68 0.0 0.0 0.00 0.00 0.00 92 1014.6
20260504232656 68 0.0 0.0 0.00 0.00 0.00 92 1014.1
20260504231645 68 0.0 0.0 0.00 0.00 0.00 92 1014.1
20260504230634 68 0.0 0.0 0.00 0.00 0.00 94 1014.2
20260504225624 68 0.0 0.0 0.00 0.00 0.00 94 1014.2
20260504224609 68 0.0 0.0 0.00 0.00 0.00 93 1014.1
20260504223559 68 0.0 0.0 0.00 0.00 0.00 91 1014.1
20260504222545 68 0.0 0.0 0.00 0.00 0.00 89 1014.2
20260504221535 70 0.0 0.0 0.00 0.00 0.00 83 1013.8
20260504220525 72 0.0 0.0 0.00 0.00 0.00 78 1014.1
20260504215514 72 0.0 0.0 0.00 0.00 0.00 78 1014.1
20260504214503 72 0.0 0.0 0.00 0.00 0.00 78 1013.7
20260504213451 72 0.0 0.0 0.00 0.00 0.00 79 1013.7
20260504212440 72 0.0 0.0 0.00 0.00 0.00 79 1013.7
20260504211429 72 0.0 0.0 0.00 0.00 0.00 80 1013.5
20260504210419 72 0.0 0.0 0.00 0.00 0.00 80 1013.7
20260504205409 72 0.0 0.0 0.00 0.00 0.00 80 1013.7
20260504204358 72 0.0 0.0 0.00 0.00 0.00 80 1013.7
20260504203348 72 0.0 0.0 0.00 0.00 0.00 80 1013.7
20260504202337 72 0.0 0.0 0.00 0.00 0.00 81 1013.5
20260504201327 72 0.0 0.0 0.00 0.00 0.00 81 1013.6
20260504200317 72 0.0 0.0 0.00 0.00 0.00 82 1013.5
20260504195306 72 0.0 0.0 0.00 0.00 0.00 82 1013.6
20260504194256 72 0.0 0.0 0.00 0.00 0.00 82 1013.6
20260504193245 72 0.0 0.0 0.00 0.00 0.00 82 1013.6
20260504192235 72 0.0 0.0 0.00 0.00 0.00 82 1013.7
20260504191225 72 0.0 0.0 0.00 0.00 0.00 84 1013.5
20260504190214 72 0.0 0.0 0.00 0.00 0.00 85 1013.7
20260504185203 72 0.0 0.0 0.00 0.00 0.00 85 1013.7
20260504184153 72 0.0 0.0 0.00 0.00 0.00 86 1013.8
20260504183142 72 0.0 0.0 0.00 0.00 0.00 85 1014.0
20260504182132 72 0.0 0.0 0.00 0.00 0.00 85 1014.1
20260504181121 0 0.0 0.0 0.00 0.00 0.00
20260504180111 72 0.0 0.0 0.00 0.00 0.00 82 1014.7
20260504175100 72 0.0 0.0 0.00 0.00 0.00 81 1014.8
20260504174050 72 0.0 0.0 0.00 0.00 0.00 82 1014.8
20260504173040 72 0.0 0.0 0.00 0.00 0.00 82 1014.8
20260504172029 72 0.0 0.0 0.00 0.00 0.00 82 1015.0
20260504171019 72 0.0 0.0 0.00 0.00 0.00 81 1015.2
20260504150808 72 0.0 0.0 0.00 0.00 0.00 85 1016.0
20260504140704 73 0.0 0.0 0.00 0.00 0.00 87 1015.7
20260504130600 73 0.0 0.0 0.00 0.00 0.00 86 1015.1
20260504110350 72 0.0 0.0 0.00 0.00 0.00 93 1014.7
20260504100247 73 0.0 0.0 0.00 0.00 0.00 89 1014.1
20260504081051 77 0.0 0.0 0.00 0.00 0.00 71 1014.6